sat.trackr.live / text

‹ back to catalog

ONEWEB-0711

NORAD 55174 · 2023-004AL

PAYLOAD ACTIVE UNKNOWN

§ Identity

Operator
Country
UK
Launch date
2023-01-10
Launch site
AFETR
Launch vehicle
Mass (kg)
RCS (m²)

Purposes: comms

External: N2YO · Heavens-Above · Gunter

§ Orbital elements

Epoch: 2026-05-25T01:22:57.885024Z

Period
109.81 min
Inclination
87.8908°
Eccentricity
0.0002351
Mean motion
13.11415216 rev/d
Perigee alt
1,215.9 km
Apogee alt
1,219.5 km
Semi-major
7,595.8 km
B*
7.3328e-4
RAAN
25.6685°
Arg perigee
95.9876°
Mean anomaly
264.1519°
Rev number
16,280

§ Raw data

ONEWEB-07111 55174U 23004AL  26145.05761441  .00000273  00000+0  73328-3 0  99942 55174  87.8908  25.6685 0002351  95.9876 264.1519 13.11415216162801

JSON: /api/v1/satellites/55174 · /tle

For live sub-satellite position, see the globe view (requires WebGL).

§ Visibility from observer

Set your observer location to see the next 7 days of passes ≥ 10°. The values pass through the URL so the page stays shareable.

No JS? Fill the form by hand. The geolocation button needs JavaScript.